Location: Hurstbourne Priors
(51.2000°N, 1.3667°W)
Time: 21:52:00
(UTC+00:00)

Altair - Pass Details

Date: 18 April 2021
Orbit: 1501 x 1683 km, 47.2° (Epoch: 13 May)

Event Time Altitude Azimuth Distance (km) Brightness Sun altitude
Rises 09:54:48 0° 271° (W) 4,801 9.8 41.9°
Reaches altitude 10° 09:57:57 10° 269° (W) 3,791 9.3 42.2°
Maximum altitude 10:07:24 68° 190° (S) 1,642 8.8 43.2°
Drops below altitude 10° 10:16:32 10° 110° (ESE) 3,668 10.3 44.1°
Sets 10:19:33 0° 108° (ESE) 4,638 10.6 44.4°
